Terug naar catalogus

SL-16 DEB

ActiefLEO
NORAD 22474·DEBRIS·🇷🇺 Russia

Gelanceerd Dec 25, 1992 vanaf Baikonur Cosmodrome

Loading…

Volgende Passages (komende 24 uur)

TLE

VersSource: Space-Track

Epoch: Sep 14, 2026, 11:27 UTC

1 22474U 92093FP  26257.47760740  .00002415  00000-0  11067-2 0  9998
2 22474  71.2970  76.2664 0145197   7.9784 352.3601 14.16855515702987

Volg SL-16 DEB in realtime met AllMySat

Download on the App Store